Location: Balaclava NSW 2575, Australia
(34.4510°S, 150.4953°E)
Time: 02:32:16
(UTC+10:00)

A-11 Canister half - Pass Details

Date: 17 June 2021
Orbit: 1513 x 1687 km, 47.2° (Epoch: 28 July)

Event Time Altitude Azimuth Distance (km) Brightness Sun altitude
Rises 17:05:39 0° 299° (WNW) 4,667 15.0 -2.9°
Reaches altitude 10° 17:08:40 10° 297° (WNW) 3,702 13.1 -3.4°
Maximum altitude 17:18:02 73° 212° (SSW) 1,635 9.2 -5.2°
Drops below altitude 10° 17:27:49 10° 127° (SE) 3,848 10.5 -7.0°
Enters shadow 17:28:43 - 126° (SE) 4,133 10.6 -7.2°
